,,,PA_Meas_PMT16A,,PR_Meas_QMR101_102,,RH_Meas_QMH101,,SR_Meas_QMS101,,TA_Meas_QMH101,,GenWind,,GenWind,
date,time,status,PA,status,PR,status,RH,status,SR,status,TA,status,DirAvg,status,SpdAvg,
2010-11-30, 00:00:04,VALID,996.688,VALID,0,VALID,92.5626,VALID,0,VALID,23.8768,VALID,135,VALID,0.412891,
2010-11-30, 00:01:04,VALID,996.677,VALID,0,VALID,92.5397,VALID,0,VALID,23.8555,VALID,135,VALID,0.344922,
2010-11-30, 00:02:04,VALID,996.655,VALID,0,VALID,92.5091,VALID,0,VALID,23.8768,VALID,135,VALID,0.401563,
2010-11-30, 00:03:04,VALID,996.656,VALID,0,VALID,92.4634,VALID,0,VALID,23.8573,VALID,135,VALID,0.437109,
2010-11-30, 00:04:04,VALID,996.671,VALID,0,VALID,92.4252,VALID,0,VALID,23.8573,VALID,135,VALID,0.474609,
2010-11-30, 00:05:04,VALID,996.653,VALID,0,VALID,92.3718,VALID,0,VALID,23.8378,VALID,135,VALID,0.421875,
2010-11-30, 00:06:04,VALID,996.66,VALID,0,VALID,92.3108,VALID,0,VALID,23.8183,VALID,135,VALID,0.489453,
2010-11-30, 00:07:04,VALID,996.662,VALID,0,VALID,92.2955,VALID,0,VALID,23.8201,VALID,115,VALID,0.603125,
2010-11-30, 00:08:04,VALID,996.638,VALID,0,VALID,92.2421,VALID,0,VALID,23.7793,VALID,113,VALID,0.438281,
2010-11-30, 00:09:04,VALID,996.625,VALID,0,VALID,92.1734,VALID,0,VALID,23.7402,VALID,113,VALID,0.483594,
2010-11-30, 00:10:04,VALID,996.586,VALID,0,VALID,92.1658,VALID,0,VALID,23.7207,VALID,35,VALID,0.64375,
2010-11-30, 00:11:04,VALID,996.612,VALID,0,VALID,92.1277,VALID,0,VALID,23.6622,VALID,35,VALID,0.526172,
2010-11-30, 00:12:04,VALID,996.566,VALID,0,VALID,92.1124,VALID,0,VALID,23.6036,VALID,35,VALID,0.483594,
2010-11-30, 00:13:04,VALID,996.571,VALID,0,VALID,92.1506,VALID,0,VALID,23.5823,VALID,35,VALID,0.686328,
2010-11-30, 00:14:04,VALID,996.555,VALID,0,VALID,92.2192,VALID,0,VALID,23.6036,VALID,35,VALID,0.69375,
2010-11-30, 00:15:04,VALID,996.531,VALID,0,VALID,92.2497,VALID,0,VALID,23.5646,VALID,35,VALID,0.541016,
2010-11-30, 00:16:04,VALID,996.52,VALID,0,VALID,92.2803,VALID,0,VALID,23.5256,VALID,35,VALID,0.475391,
2010-11-30, 00:17:05,VALID,996.474,VALID,0,VALID,92.3184,VALID,0,VALID,23.5061,VALID,35,VALID,0.501562,
2010-11-30, 00:18:05,VALID,996.485,VALID,0,VALID,92.3337,VALID,0,VALID,23.4671,VALID,35,VALID,0.401953,
2010-11-30, 00:19:05,VALID,996.484,VALID,0,VALID,92.3413,VALID,0,VALID,23.428,VALID,35,VALID,0.3125,
2010-11-30, 00:20:05,VALID,996.469,VALID,0,VALID,92.3718,VALID,0,VALID,23.4085,VALID,35,VALID,0.422656,
2010-11-30, 00:21:05,VALID,996.465,VALID,0,VALID,92.3947,VALID,0,VALID,23.4085,VALID,35,VALID,0.551172,
2010-11-30, 00:22:05,VALID,996.459,VALID,0,VALID,92.471,VALID,0,VALID,23.428,VALID,35,VALID,0.507813,
2010-11-30, 00:23:05,VALID,996.447,VALID,0,VALID,92.5473,VALID,0,VALID,23.4475,VALID,35,VALID,0.4375,
2010-11-30, 00:24:05,VALID,996.444,VALID,0,VALID,92.5931,VALID,0,VALID,23.4671,VALID,35,VALID,0.289453,
2010-11-30, 00:25:05,VALID,996.409,VALID,0,VALID,92.6236,VALID,0,VALID,23.4458,VALID,35,VALID,0.170312,
2010-11-30, 00:26:05,VALID,996.399,VALID,0,VALID,92.6541,VALID,0,VALID,23.4085,VALID,35,VALID,0.142578,
2010-11-30, 00:27:05,VALID,996.401,VALID,0,VALID,92.6541,VALID,0,VALID,23.3695,VALID,35,VALID,0,
2010-11-30, 00:28:05,VALID,996.398,VALID,0,VALID,92.6694,VALID,0,VALID,23.389,VALID,35,VALID,0,
2010-11-30, 00:29:05,VALID,996.401,VALID,0,VALID,92.6923,VALID,0,VALID,23.4085,VALID,53,VALID,0.0367187,
2010-11-30, 00:30:05,VALID,996.391,VALID,0,VALID,92.7228,VALID,0,VALID,23.428,VALID,98,VALID,0.611719,
2010-11-30, 00:31:05,VALID,996.412,VALID,0,VALID,92.7609,VALID,0,VALID,23.4671,VALID,98,VALID,0.507813,
2010-11-30, 00:32:05,VALID,996.451,VALID,0,VALID,92.7304,VALID,0,VALID,23.4866,VALID,98,VALID,0.829687,
2010-11-30, 00:33:05,VALID,996.393,VALID,0,VALID,92.7304,VALID,0,VALID,23.5256,VALID,97,VALID,0.593359,
2010-11-30, 00:34:05,VALID,996.383,VALID,0,VALID,92.6999,VALID,0,VALID,23.5451,VALID,97,VALID,0.685156,
2010-11-30, 00:35:05,VALID,996.356,VALID,0,VALID,92.6465,VALID,0,VALID,23.5451,VALID,97,VALID,0.61875,
2010-11-30, 00:36:05,VALID,996.318,VALID,0,VALID,92.6007,VALID,0,VALID,23.5646,VALID,97,VALID,0.667969,
2010-11-30, 00:37:05,VALID,996.302,VALID,0,VALID,92.5473,VALID,0,VALID,23.5451,VALID,97,VALID,0.554688,
2010-11-30, 00:38:05,VALID,996.284,VALID,0,VALID,92.4481,VALID,0,VALID,23.5451,VALID,97,VALID,0.659375,
2010-11-30, 00:39:05,VALID,996.269,VALID,0,VALID,92.3871,VALID,0,VALID,23.5451,VALID,102,VALID,0.594922,
2010-11-30, 00:40:05,VALID,996.216,VALID,0,VALID,92.2803,VALID,0,VALID,23.5433,VALID,116,VALID,0.779688,
2010-11-30, 00:41:05,VALID,996.207,VALID,0,VALID,92.1887,VALID,0,VALID,23.5433,VALID,116,VALID,0.525,
2010-11-30, 00:42:05,VALID,996.167,VALID,0,VALID,92.0971,VALID,0,VALID,23.5433,VALID,122,VALID,0.737109,
2010-11-30, 00:43:05,VALID,996.184,VALID,0,VALID,92.0056,VALID,0,VALID,23.5646,VALID,123,VALID,0.5625,
2010-11-30, 00:44:05,VALID,996.202,VALID,0,VALID,91.9293,VALID,0,VALID,23.5628,VALID,130,VALID,0.609766,
2010-11-30, 00:45:05,VALID,996.181,VALID,0,VALID,91.8606,VALID,0,VALID,23.5433,VALID,130,VALID,0.508984,
2010-11-30, 00:46:05,VALID,996.191,VALID,0,VALID,91.8225,VALID,0,VALID,23.5823,VALID,130,VALID,0.528125,
2010-11-30, 00:47:05,VALID,996.194,VALID,0,VALID,91.792,VALID,0,VALID,23.6232,VALID,159,VALID,0.854297,
2010-11-30, 00:48:05,VALID,996.151,VALID,0,VALID,91.7309,VALID,0,VALID,23.6214,VALID,161,VALID,0.767969,
2010-11-30, 00:49:05,VALID,996.142,VALID,0,VALID,91.708,VALID,0,VALID,23.6214,VALID,161,VALID,0.570313,
2010-11-30, 00:50:05,VALID,996.177,VALID,0,VALID,91.5936,VALID,0,VALID,23.6214,VALID,161,VALID,0.803516,
2010-11-30, 00:51:05,VALID,996.147,VALID,0,VALID,91.5249,VALID,0,VALID,23.6409,VALID,168,VALID,0.646875,
2010-11-30, 00:52:05,VALID,996.134,VALID,0,VALID,91.4105,VALID,0.112286,VALID,23.6604,VALID,168,VALID,0.530469,
2010-11-30, 00:53:05,VALID,996.117,VALID,0,VALID,91.3113,VALID,0.112286,VALID,23.6604,VALID,168,VALID,0.567578,
2010-11-30, 00:54:05,VALID,996.11,VALID,0,VALID,91.2121,VALID,0.112286,VALID,23.6604,VALID,168,VALID,0.263281,
2010-11-30, 00:55:05,VALID,996.113,VALID,0,VALID,91.174,VALID,0,VALID,23.6817,VALID,168,VALID,0.389453,
2010-11-30, 00:56:05,VALID,996.113,VALID,0,VALID,91.09,VALID,0,VALID,23.6427,VALID,168,VALID,0,
2010-11-30, 00:57:05,VALID,996.096,VALID,0,VALID,91.0214,VALID,0,VALID,23.6232,VALID,168,VALID,0.201953,
2010-11-30, 00:58:05,VALID,996.085,VALID,0,VALID,90.9756,VALID,0,VALID,23.6232,VALID,168,VALID,0.0648438,
2010-11-30, 00:59:05,VALID,996.083,VALID,0,VALID,90.9527,VALID,0,VALID,23.625,VALID,168,VALID,0,
2010-11-30, 01:00:05,VALID,996.054,VALID,0,VALID,90.9069,VALID,0,VALID,23.5841,VALID,168,VALID,0,
2010-11-30, 01:01:05,VALID,996.016,VALID,0,VALID,90.8535,VALID,0,VALID,23.5646,VALID,168,VALID,0,
2010-11-30, 01:02:05,VALID,996.018,VALID,0,VALID,90.8001,VALID,0,VALID,23.5451,VALID,168,VALID,0.396484,
2010-11-30, 01:03:05,VALID,996.019,VALID,0,VALID,90.762,VALID,0,VALID,23.5256,VALID,165,VALID,0.215625,
2010-11-30, 01:04:05,VALID,995.994,VALID,0,VALID,90.7085,VALID,0,VALID,23.5469,VALID,165,VALID,0,
2010-11-30, 01:05:05,VALID,995.98,VALID,0,VALID,90.7314,VALID,0,VALID,23.5061,VALID,165,VALID,0,
2010-11-30, 01:06:05,VALID,995.982,VALID,0,VALID,90.7085,VALID,0,VALID,23.4884,VALID,16,VALID,0.472266,
2010-11-30, 01:07:05,VALID,995.952,VALID,0,VALID,90.6475,VALID,0,VALID,23.4475,VALID,354,VALID,0.657422,
2010-11-30, 01:08:05,VALID,995.924,VALID,0,VALID,90.6246,VALID,0,VALID,23.389,VALID,27,VALID,0.521094,
2010-11-30, 01:09:05,VALID,995.918,VALID,0,VALID,90.5941,VALID,0,VALID,23.3695,VALID,27,VALID,0.461719,
2010-11-30, 01:10:05,VALID,995.904,VALID,0,VALID,90.617,VALID,0,VALID,23.35,VALID,27,VALID,0.408594,
2010-11-30, 01:11:05,VALID,995.888,VALID,0,VALID,90.7849,VALID,0,VALID,23.3695,VALID,40,VALID,0.466406,
2010-11-30, 01:12:05,VALID,995.896,VALID,0,VALID,90.8306,VALID,0,VALID,23.3695,VALID,56,VALID,0.535937,
2010-11-30, 01:13:05,VALID,995.884,VALID,0,VALID,90.9146,VALID,0,VALID,23.3908,VALID,63,VALID,0.564062,
2010-11-30, 01:14:05,VALID,995.872,VALID,0,VALID,90.9985,VALID,0,VALID,23.3695,VALID,75,VALID,0.723437,
2010-11-30, 01:15:05,VALID,995.837,VALID,0,VALID,91.1434,VALID,0,VALID,23.4085,VALID,92,VALID,0.598437,
2010-11-30, 01:16:05,VALID,995.824,VALID,0,VALID,91.3647,VALID,0,VALID,23.4475,VALID,92,VALID,0.430078,
2010-11-30, 01:17:05,VALID,995.795,VALID,0,VALID,91.3876,VALID,0,VALID,23.4866,VALID,92,VALID,0.555469,
2010-11-30, 01:18:05,VALID,995.778,VALID,0,VALID,91.2426,VALID,0,VALID,23.4475,VALID,105,VALID,0.673047,
2010-11-30, 01:19:05,VALID,995.77,VALID,0,VALID,91.0443,VALID,0,VALID,23.4475,VALID,117,VALID,0.697266,
2010-11-30, 01:20:05,VALID,995.735,VALID,0,VALID,90.7543,VALID,0,VALID,23.4688,VALID,116,VALID,0.593359,
2010-11-30, 01:21:05,VALID,995.733,VALID,0,VALID,90.5178,VALID,0,VALID,23.428,VALID,117,VALID,0.372656,
2010-11-30, 01:22:05,VALID,995.721,VALID,0,VALID,90.3652,VALID,0,VALID,23.4493,VALID,117,VALID,0.473047,
2010-11-30, 01:23:05,VALID,995.728,VALID,0,VALID,90.3042,VALID,0,VALID,23.428,VALID,116,VALID,0.533984,
2010-11-30, 01:24:05,VALID,995.763,VALID,0,VALID,90.2279,VALID,0,VALID,23.428,VALID,117,VALID,0.214453,
2010-11-30, 01:25:05,VALID,995.774,VALID,0,VALID,90.205,VALID,0,VALID,23.4085,VALID,117,VALID,0.501172,
2010-11-30, 01:26:05,VALID,995.754,VALID,0,VALID,90.0753,VALID,0,VALID,23.4067,VALID,123,VALID,0.767578,
2010-11-30, 01:27:05,VALID,995.744,VALID,0,VALID,89.938,VALID,0,VALID,23.3677,VALID,124,VALID,0.564844,
2010-11-30, 01:28:05,VALID,995.739,VALID,0,VALID,89.8006,VALID,0,VALID,23.3482,VALID,124,VALID,0.105078,
2010-11-30, 01:29:05,VALID,995.744,VALID,0,VALID,89.6709,VALID,0.112286,VALID,23.3482,VALID,124,VALID,0.240234,
2010-11-30, 01:30:05,VALID,995.71,VALID,0,VALID,89.7091,VALID,0,VALID,23.2897,VALID,124,VALID,0,
2010-11-30, 01:31:05,VALID,995.748,VALID,0,VALID,89.854,VALID,0,VALID,23.2702,VALID,124,VALID,0,
2010-11-30, 01:32:05,VALID,995.736,VALID,0,VALID,90.0066,VALID,0.112286,VALID,23.2702,VALID,120,VALID,0,
2010-11-30, 01:33:05,VALID,995.737,VALID,0,VALID,90.1134,VALID,0,VALID,23.2507,VALID,117,VALID,0.116016,
2010-11-30, 01:34:05,VALID,995.779,VALID,0,VALID,90.205,VALID,0.112286,VALID,23.2507,VALID,65,VALID,0.595312,
2010-11-30, 01:35:05,VALID,995.742,VALID,0,VALID,90.3271,VALID,0.112286,VALID,23.2312,VALID,79,VALID,1.02539,
2010-11-30, 01:36:05,VALID,995.726,VALID,0,VALID,90.5407,VALID,0,VALID,23.2312,VALID,79,VALID,0.644141,
2010-11-30, 01:37:05,VALID,995.71,VALID,0,VALID,90.6628,VALID,0.112286,VALID,23.2312,VALID,79,VALID,0.662109,
2010-11-30, 01:38:05,VALID,995.656,VALID,0,VALID,90.8154,VALID,0,VALID,23.2507,VALID,65,VALID,0.721484,
2010-11-30, 01:39:05,VALID,995.635,VALID,0,VALID,90.884,VALID,0.112286,VALID,23.2702,VALID,65,VALID,0.563281,
2010-11-30, 01:40:05,VALID,995.626,VALID,0,VALID,90.9146,VALID,0,VALID,23.2915,VALID,63,VALID,0.855859,
2010-11-30, 01:41:05,VALID,995.597,VALID,0,VALID,90.8764,VALID,0,VALID,23.311,VALID,62,VALID,0.786328,
2010-11-30, 01:42:05,VALID,995.565,VALID,0,VALID,90.8611,VALID,0,VALID,23.311,VALID,62,VALID,0.631641,
2010-11-30, 01:43:05,VALID,995.542,VALID,0,VALID,90.8154,VALID,0,VALID,23.311,VALID,58,VALID,0.777734,
2010-11-30, 01:44:05,VALID,995.534,VALID,0,VALID,90.7085,VALID,0,VALID,23.311,VALID,49,VALID,0.714453,
2010-11-30, 01:45:05,VALID,995.494,VALID,0,VALID,90.7849,VALID,0,VALID,23.3305,VALID,47,VALID,0.835938,
2010-11-30, 01:46:05,VALID,995.518,VALID,0,VALID,90.7925,VALID,0,VALID,23.3305,VALID,36,VALID,0.763281,
2010-11-30, 01:47:05,VALID,995.526,VALID,0,VALID,90.8077,VALID,0,VALID,23.35,VALID,36,VALID,0.507422,
2010-11-30, 01:48:05,VALID,995.516,VALID,0,VALID,90.7009,VALID,0,VALID,23.3305,VALID,36,VALID,0.639453,
2010-11-30, 01:49:05,VALID,995.488,VALID,0,VALID,90.4949,VALID,0,VALID,23.2915,VALID,23,VALID,0.542969,
2010-11-30, 01:50:05,VALID,995.537,VALID,0,VALID,90.5941,VALID,0,VALID,23.2719,VALID,23,VALID,0.580469,
2010-11-30, 01:51:05,VALID,995.485,VALID,0,VALID,90.8306,VALID,0,VALID,23.2524,VALID,23,VALID,0.444922,
2010-11-30, 01:52:05,VALID,995.478,VALID,0,VALID,90.9527,VALID,0,VALID,23.2329,VALID,23,VALID,0.435937,
2010-11-30, 01:53:05,VALID,995.476,VALID,0,VALID,91.0595,VALID,0,VALID,23.1939,VALID,23,VALID,0.303906,
2010-11-30, 01:54:05,VALID,995.48,VALID,0,VALID,91.1206,VALID,0,VALID,23.1744,VALID,23,VALID,0.40625,
2010-11-30, 01:55:05,VALID,995.508,VALID,0,VALID,91.1968,VALID,0,VALID,23.1549,VALID,23,VALID,0,
2010-11-30, 01:56:05,VALID,995.485,VALID,0,VALID,91.2884,VALID,0,VALID,23.1159,VALID,23,VALID,0,
2010-11-30, 01:57:05,VALID,995.48,VALID,0,VALID,91.3876,VALID,0,VALID,23.1176,VALID,23,VALID,0,
2010-11-30, 01:58:05,VALID,995.456,VALID,0,VALID,91.4563,VALID,0,VALID,23.0573,VALID,23,VALID,0,
2010-11-30, 01:59:05,VALID,995.431,VALID,0,VALID,91.586,VALID,0,VALID,23.0769,VALID,23,VALID,0,
2010-11-30, 02:00:05,VALID,995.432,VALID,0,VALID,91.7309,VALID,0,VALID,23.0769,VALID,23,VALID,0,
2010-11-30, 02:01:05,VALID,995.446,VALID,0,VALID,91.8683,VALID,0,VALID,23.0769,VALID,23,VALID,0,
2010-11-30, 02:02:05,VALID,995.429,VALID,0,VALID,91.9445,VALID,0,VALID,23.0573,VALID,23,VALID,0,
2010-11-30, 02:03:05,VALID,995.401,VALID,0,VALID,92.0056,VALID,0,VALID,23.0573,VALID,23,VALID,0.981641,
2010-11-30, 02:04:05,VALID,995.405,VALID,0,VALID,91.998,VALID,0,VALID,23.0183,VALID,23,VALID,0.857422,
2010-11-30, 02:05:05,VALID,995.397,VALID,0,VALID,92.059,VALID,0,VALID,23.0183,VALID,23,VALID,0.683594,
2010-11-30, 02:06:05,VALID,995.409,VALID,0,VALID,92.0743,VALID,0,VALID,22.9988,VALID,23,VALID,0.441797,
2010-11-30, 02:07:05,VALID,995.392,VALID,0,VALID,92.0666,VALID,0,VALID,22.9793,VALID,23,VALID,0.503125,
2010-11-30, 02:08:05,VALID,995.374,VALID,0,VALID,92.1048,VALID,0,VALID,22.9598,VALID,23,VALID,0.532422,
2010-11-30, 02:09:05,VALID,995.371,VALID,0,VALID,92.1658,VALID,0,VALID,22.9598,VALID,23,VALID,0.521094,
2010-11-30, 02:10:05,VALID,995.381,VALID,0,VALID,92.2803,VALID,0,VALID,22.9988,VALID,23,VALID,0.392188,
2010-11-30, 02:11:05,VALID,995.356,VALID,0,VALID,92.3413,VALID,0,VALID,23.0378,VALID,23,VALID,0.301172,
2010-11-30, 02:12:05,VALID,995.343,VALID,0,VALID,92.3718,VALID,0,VALID,23.0378,VALID,23,VALID,0.138281,
2010-11-30, 02:13:05,VALID,995.342,VALID,0,VALID,92.4023,VALID,0,VALID,23.0378,VALID,23,VALID,0,
2010-11-30, 02:14:05,VALID,995.306,VALID,0,VALID,92.4328,VALID,0,VALID,23.0378,VALID,23,VALID,0,
2010-11-30, 02:15:05,VALID,995.328,VALID,0,VALID,92.4557,VALID,0,VALID,23.0981,VALID,23,VALID,0,
2010-11-30, 02:16:05,VALID,995.298,VALID,0,VALID,92.5091,VALID,0,VALID,23.0964,VALID,23,VALID,0.403125,
2010-11-30, 02:17:05,VALID,995.307,VALID,0,VALID,92.5015,VALID,0,VALID,23.1159,VALID,150,VALID,0.396484,
2010-11-30, 02:18:05,VALID,995.348,VALID,0,VALID,92.5168,VALID,0,VALID,23.1354,VALID,150,VALID,0.575,
2010-11-30, 02:19:05,VALID,995.301,VALID,0,VALID,92.5015,VALID,0,VALID,23.1744,VALID,150,VALID,0.415234,
2010-11-30, 02:20:05,VALID,995.33,VALID,0,VALID,92.4023,VALID,0,VALID,23.1744,VALID,150,VALID,0.258203,
2010-11-30, 02:21:05,VALID,995.324,VALID,0,VALID,92.3031,VALID,0,VALID,23.1744,VALID,150,VALID,0.239844,
2010-11-30, 02:22:05,VALID,995.324,VALID,0,VALID,92.1963,VALID,0,VALID,23.1957,VALID,150,VALID,0.553906,
2010-11-30, 02:23:05,VALID,995.323,VALID,0,VALID,92.0285,VALID,0,VALID,23.2134,VALID,150,VALID,0.581641,
2010-11-30, 02:24:05,VALID,995.298,VALID,0,VALID,91.8301,VALID,0,VALID,23.2329,VALID,150,VALID,0.536328,
2010-11-30, 02:25:05,VALID,995.307,VALID,0,VALID,91.6394,VALID,0,VALID,23.2524,VALID,142,VALID,0.649219,
2010-11-30, 02:26:05,VALID,995.318,VALID,0,VALID,91.4639,VALID,0,VALID,23.2719,VALID,141,VALID,0.666016,
2010-11-30, 02:27:05,VALID,995.314,VALID,0,VALID,91.235,VALID,0,VALID,23.311,VALID,141,VALID,0.674219,
2010-11-30, 02:28:05,VALID,995.323,VALID,0,VALID,91.0214,VALID,0,VALID,23.311,VALID,116,VALID,0.708984,
2010-11-30, 02:29:05,VALID,995.381,VALID,0,VALID,90.7162,VALID,0,VALID,23.311,VALID,106,VALID,0.876953,
2010-11-30, 02:30:05,VALID,995.415,VALID,0,VALID,90.3728,VALID,0,VALID,23.2719,VALID,104,VALID,0.965234,
2010-11-30, 02:31:05,VALID,995.424,VALID,0,VALID,90.1516,VALID,0,VALID,23.2134,VALID,102,VALID,1.05234,
2010-11-30, 02:32:05,VALID,995.408,VALID,0,VALID,90.2126,VALID,0,VALID,23.1744,VALID,102,VALID,1.07813,
2010-11-30, 02:33:05,VALID,995.444,VALID,0,VALID,90.3423,VALID,0,VALID,23.1354,VALID,102,VALID,0.558984,
2010-11-30, 02:34:05,VALID,995.409,VALID,0,VALID,90.5026,VALID,0,VALID,23.1371,VALID,102,VALID,0.554297,
2010-11-30, 02:35:05,VALID,995.398,VALID,0,VALID,90.7009,VALID,0,VALID,23.0964,VALID,102,VALID,0.585938,
2010-11-30, 02:36:05,VALID,995.41,VALID,0,VALID,90.8459,VALID,0,VALID,23.0573,VALID,66,VALID,0.696484,
2010-11-30, 02:37:05,VALID,995.392,VALID,0,VALID,90.9451,VALID,0,VALID,23.0183,VALID,66,VALID,0.503516,
2010-11-30, 02:38:05,VALID,995.381,VALID,0,VALID,91.09,VALID,0,VALID,22.9598,VALID,66,VALID,0.661719,
2010-11-30, 02:39:05,VALID,995.349,VALID,0,VALID,91.2579,VALID,0,VALID,22.9598,VALID,66,VALID,0.239063,
2010-11-30, 02:40:05,VALID,995.362,VALID,0,VALID,91.4868,VALID,0,VALID,22.9403,VALID,66,VALID,0,
2010-11-30, 02:41:05,VALID,995.338,VALID,0,VALID,91.586,VALID,0,VALID,22.9208,VALID,66,VALID,0,
2010-11-30, 02:42:05,VALID,995.312,VALID,0,VALID,91.6775,VALID,0,VALID,22.9208,VALID,66,VALID,0,
2010-11-30, 02:43:05,VALID,995.316,VALID,0,VALID,91.7691,VALID,0,VALID,22.9013,VALID,66,VALID,0,
2010-11-30, 02:44:05,VALID,995.288,VALID,0,VALID,91.8911,VALID,0,VALID,22.9208,VALID,66,VALID,0,
2010-11-30, 02:45:05,VALID,995.301,VALID,0,VALID,91.9827,VALID,0,VALID,22.9208,VALID,66,VALID,0,
2010-11-30, 02:46:05,VALID,995.306,VALID,0,VALID,92.0437,VALID,0,VALID,22.9208,VALID,75,VALID,0.515625,
2010-11-30, 02:47:05,VALID,995.29,VALID,0,VALID,92.0132,VALID,0,VALID,22.9013,VALID,94,VALID,0.522656,
2010-11-30, 02:48:05,VALID,995.299,VALID,0,VALID,91.9293,VALID,0,VALID,22.9208,VALID,95,VALID,0.557422,
2010-11-30, 02:49:05,VALID,995.277,VALID,0,VALID,91.8148,VALID,0,VALID,22.942,VALID,95,VALID,0.569922,
2010-11-30, 02:50:05,VALID,995.284,VALID,0,VALID,91.6546,VALID,0,VALID,22.9598,VALID,95,VALID,0.585547,
2010-11-30, 02:51:05,VALID,995.247,VALID,0,VALID,91.4639,VALID,0,VALID,22.9598,VALID,95,VALID,0.576172,
2010-11-30, 02:52:05,VALID,995.278,VALID,0,VALID,91.3113,VALID,0,VALID,22.9988,VALID,95,VALID,0.5375,
2010-11-30, 02:53:05,VALID,995.276,VALID,0,VALID,91.1206,VALID,0,VALID,23.0183,VALID,95,VALID,0.388672,
2010-11-30, 02:54:05,VALID,995.257,VALID,0,VALID,90.9298,VALID,0,VALID,23.0183,VALID,95,VALID,0.494922,
2010-11-30, 02:55:05,VALID,995.284,VALID,0,VALID,90.762,VALID,0,VALID,23.0378,VALID,139,VALID,0.783203,
2010-11-30, 02:56:05,VALID,995.304,VALID,0,VALID,90.4263,VALID,0,VALID,23.0573,VALID,138,VALID,0.512891,
2010-11-30, 02:57:05,VALID,995.281,VALID,0,VALID,90.2431,VALID,0,VALID,23.0981,VALID,139,VALID,0.739453,
2010-11-30, 02:58:05,VALID,995.263,VALID,0,VALID,90.0906,VALID,0,VALID,23.0964,VALID,139,VALID,0.571875,
2010-11-30, 02:59:05,VALID,995.258,VALID,0,VALID,89.8311,VALID,0,VALID,23.1354,VALID,139,VALID,0.593359,
2010-11-30, 03:00:05,VALID,995.25,VALID,0,VALID,89.6404,VALID,0,VALID,23.1354,VALID,139,VALID,0.572266,
2010-11-30, 03:01:04,VALID,995.299,VALID,0,VALID,89.4649,VALID,0,VALID,23.1354,VALID,115,VALID,0.787891,
2010-11-30, 03:02:04,VALID,995.274,VALID,0,VALID,89.4191,VALID,0,VALID,23.1549,VALID,115,VALID,0.774609,
2010-11-30, 03:03:04,VALID,995.261,VALID,0,VALID,89.3581,VALID,0,VALID,23.1549,VALID,110,VALID,0.902734,
2010-11-30, 03:04:04,VALID,995.279,VALID,0,VALID,89.2894,VALID,0,VALID,23.1762,VALID,110,VALID,0.878125,
2010-11-30, 03:05:04,VALID,995.284,VALID,0,VALID,89.1979,VALID,0,VALID,23.1762,VALID,110,VALID,0.823438,
2010-11-30, 03:06:04,VALID,995.256,VALID,0,VALID,89.1445,VALID,0,VALID,23.1566,VALID,110,VALID,0.525391,
2010-11-30, 03:07:04,VALID,995.275,VALID,0,VALID,88.9919,VALID,0,VALID,23.1159,VALID,110,VALID,0.550391,
2010-11-30, 03:08:04,VALID,995.26,VALID,0,VALID,89.1445,VALID,0,VALID,23.1159,VALID,110,VALID,0.313672,
2010-11-30, 03:09:04,VALID,995.26,VALID,0,VALID,89.175,VALID,0,VALID,23.1176,VALID,110,VALID,0.242578,
2010-11-30, 03:10:04,VALID,995.204,VALID,0,VALID,89.2208,VALID,0,VALID,23.1176,VALID,110,VALID,0,
2010-11-30, 03:11:04,VALID,995.19,VALID,0,VALID,89.2284,VALID,0,VALID,23.0573,VALID,110,VALID,0,
2010-11-30, 03:12:04,VALID,995.208,VALID,0,VALID,89.2971,VALID,0,VALID,23.0981,VALID,110,VALID,0,
2010-11-30, 03:13:04,VALID,995.157,VALID,0,VALID,89.3276,VALID,0,VALID,23.0573,VALID,110,VALID,0,
2010-11-30, 03:14:04,VALID,995.221,VALID,0,VALID,89.2666,VALID,0,VALID,23.0591,VALID,110,VALID,0,
2010-11-30, 03:15:04,VALID,995.223,VALID,0,VALID,89.3123,VALID,0,VALID,23.0183,VALID,110,VALID,0,
2010-11-30, 03:16:04,VALID,995.238,VALID,0,VALID,89.4344,VALID,0,VALID,23.0201,VALID,110,VALID,0,
2010-11-30, 03:17:04,VALID,995.256,VALID,0,VALID,89.4802,VALID,0,VALID,22.9793,VALID,110,VALID,0,
2010-11-30, 03:18:04,VALID,995.255,VALID,0,VALID,89.6557,VALID,0,VALID,22.9811,VALID,110,VALID,0.530078,
2010-11-30, 03:19:04,VALID,995.256,VALID,0,VALID,89.8159,VALID,0,VALID,22.9598,VALID,78,VALID,0.421094,
2010-11-30, 03:20:04,VALID,995.269,VALID,0,VALID,89.8235,VALID,0,VALID,22.9403,VALID,78,VALID,0.493359,
2010-11-30, 03:21:04,VALID,995.256,VALID,0,VALID,89.8235,VALID,0,VALID,22.9208,VALID,78,VALID,0.346094,
2010-11-30, 03:22:04,VALID,995.228,VALID,0,VALID,89.8769,VALID,0,VALID,22.9225,VALID,78,VALID,0.223438,
2010-11-30, 03:23:04,VALID,995.259,VALID,0,VALID,89.9303,VALID,0,VALID,22.8835,VALID,78,VALID,0,
2010-11-30, 03:24:04,VALID,995.246,VALID,0,VALID,90.0143,VALID,0,VALID,22.8427,VALID,78,VALID,0,
2010-11-30, 03:25:04,VALID,995.247,VALID,0,VALID,90.1974,VALID,0,VALID,22.8427,VALID,78,VALID,0,
2010-11-30, 03:26:04,VALID,995.218,VALID,0,VALID,90.4415,VALID,0,VALID,22.864,VALID,143,VALID,0.416406,
2010-11-30, 03:27:04,VALID,995.24,VALID,0,VALID,90.6094,VALID,0,VALID,22.8818,VALID,187,VALID,0.588672,
2010-11-30, 03:28:04,VALID,995.245,VALID,0,VALID,90.6475,VALID,0,VALID,22.9013,VALID,187,VALID,0.343359,
2010-11-30, 03:29:04,VALID,995.26,VALID,0,VALID,90.6475,VALID,0,VALID,22.9208,VALID,187,VALID,0.271875,
2010-11-30, 03:30:04,VALID,995.229,VALID,0,VALID,90.5712,VALID,0,VALID,22.9208,VALID,187,VALID,0.198437,
2010-11-30, 03:31:04,VALID,995.219,VALID,0,VALID,90.4491,VALID,0,VALID,22.9208,VALID,187,VALID,0.294922,
2010-11-30, 03:32:04,VALID,995.24,VALID,0,VALID,90.4186,VALID,0,VALID,22.942,VALID,187,VALID,0.478125,
2010-11-30, 03:33:04,VALID,995.241,VALID,0,VALID,90.3728,VALID,0,VALID,22.9403,VALID,113,VALID,0.660937,
2010-11-30, 03:34:04,VALID,995.241,VALID,0,VALID,90.2966,VALID,0,VALID,22.9403,VALID,106,VALID,0.776172,
2010-11-30, 03:35:04,VALID,995.222,VALID,0,VALID,90.0982,VALID,0,VALID,22.9598,VALID,101,VALID,0.602344,
2010-11-30, 03:36:04,VALID,995.278,VALID,0,VALID,89.999,VALID,0,VALID,22.9811,VALID,101,VALID,0.897266,
2010-11-30, 03:37:04,VALID,995.286,VALID,0,VALID,89.8998,VALID,0,VALID,22.9793,VALID,101,VALID,0.793359,
2010-11-30, 03:38:04,VALID,995.328,VALID,0,VALID,89.7167,VALID,0,VALID,22.9988,VALID,101,VALID,1.125,
2010-11-30, 03:39:04,VALID,995.326,VALID,0,VALID,89.4954,VALID,0,VALID,23.0183,VALID,95,VALID,0.696484,
2010-11-30, 03:40:04,VALID,995.296,VALID,0,VALID,89.3123,VALID,0,VALID,23.0378,VALID,100,VALID,1.03242,
2010-11-30, 03:41:04,VALID,995.295,VALID,0,VALID,89.3123,VALID,0,VALID,22.9776,VALID,100,VALID,1.02891,
2010-11-30, 03:42:04,VALID,995.264,VALID,0,VALID,89.4039,VALID,0.112286,VALID,22.9581,VALID,103,VALID,0.994922,
2010-11-30, 03:43:04,VALID,995.265,VALID,0,VALID,89.4649,VALID,0,VALID,22.9385,VALID,108,VALID,0.666797,
2010-11-30, 03:44:04,VALID,995.273,VALID,0,VALID,89.5565,VALID,0,VALID,22.919,VALID,109,VALID,0.414453,
2010-11-30, 03:45:04,VALID,995.29,VALID,0,VALID,89.6099,VALID,0,VALID,22.8995,VALID,109,VALID,0.225,
2010-11-30, 03:46:04,VALID,995.284,VALID,0,VALID,89.6938,VALID,0,VALID,22.8818,VALID,109,VALID,0.113672,
2010-11-30, 03:47:04,VALID,995.282,VALID,0,VALID,89.8693,VALID,0,VALID,22.8623,VALID,109,VALID,0.1,